Location: The Saddle
(36.8333°N, 80.3417°W)
Time: 07:29:47
(UTC-04:00)

Vanguard 2 Rocket - Pass Details

Date: 06 February 2023
Orbit: 555 x 3316 km, 32.9° (Epoch: 27 March)

Event Time Altitude Azimuth Distance (km) Brightness Sun altitude
Rises 13:14:02 0° 270° (W) 2,904 9.6 36.9°
Reaches altitude 10° 13:16:33 10° 261° (W) 1,876 8.9 36.7°
Maximum altitude 13:20:13 35° 194° (SSW) 909 11.1 36.6°
Drops below altitude 10° 13:24:01 10° 127° (SE) 1,934 9.0 36.4°
Sets 13:26:39 0° 118° (ESE) 3,010 9.7 36.3°
